Regional Weather Roundup
Issued by NWS

Home | Current Version | Previous Version | Graphics & Text | Print | Product List | Glossary On
Versions: 1 2 3 4 5 6 7 8 9 10 11 12 13 14 15 16 17 18 19 20 21 22 23 24 25 26 27 28 29 30 31 32 33 34 35 36 37 38 39 40 41 42 43 44 45 46 47 48 49 50
000
ASUS43 KLOT 312008
RWRIL

ILLINOIS REGIONAL WEATHER ROUNDUP
NATIONAL WEATHER SERVICE CHICAGO/ROMEOVILLE IL
300 PM CDT MON AUG 31 2015

NOTE: "FAIR" INDICATES FEW OR NO CLOUDS BELOW 12,000 FEET WITH NO
SIGNIFICANT WEATHER AND/OR OBSTRUCTIONS TO VISIBILITY.

* THESE STATIONS ARE NOT UNDER NWS QUALITY CONTROL. THEY ALSO MAY NOT
  REPORT WEATHER SUCH AS PRECIPITATION OR FOG.

ILZ001-002-007-009-015-016-024-312100-
NORTHWEST ILLINOIS

CITY           SKY/WX    TMP DP  RH WIND       PRES   REMARKS
MOLINE         MOSUNNY   86  71  60 S9        30.00F HX  91
STERLING*        N/A    N/A N/A N/A MISG        N/A
SAVANNA*       SUNNY     85  67  53 SW6       30.01F HX  88
$$

ILZ003-004-008-010-011-017-018-312100-
NORTH CENTRAL ILLINOIS

CITY           SKY/WX    TMP DP  RH WIND       PRES   REMARKS
ROCKFORD       MOSUNNY   84  68  58 S12       30.04F HX  87
FREEPORT*      MOSUNNY   83  69  64 S7        30.05F HX  86
ROCHELLE*      MOSUNNY   83  70  64 S6        30.04F HX  88
DE KALB*       PTSUNNY   84  72  67 S8        30.06F HX  89
PERU*          MOSUNNY   87  65  49 S9        30.03F HX  88
$$

ILZ005-006-012>014-019>023-312100-
NORTHEAST ILLINOIS

CITY           SKY/WX    TMP DP  RH WIND       PRES   REMARKS
CHICAGO-OHARE  MOSUNNY   84  67  56 VRB5      30.03F HX  86
CHICAGO-MIDWAY MOSUNNY   85  68  56 E6        30.03F HX  88
AURORA         MOSUNNY   84  69  60 S6        30.05F HX  88
LANSING*       PTSUNNY   84  69  61 SE6       30.04F HX  87
JOLIET*        PTSUNNY   87  71  59 SE5       30.03F HX  92
WAUKEGAN       SUNNY     74  66  76 E7        30.04F
DUPAGE AIRPORT MOSUNNY   85  69  58 SW7       30.04F HX  89
KANKAKEE*      MOSUNNY   87  71  58 S6        30.04F HX  93
WHEELING       SUNNY     82  67  60 E6        30.05F HX  84
MORRIS*        MOSUNNY   83  70  64 CALM      30.02F HX  87
ROMEOVILLE*    PTSUNNY   84  67  57 S6        30.04F HX  87
NORTHERLY ISL    N/A     74  69  85 NE2         N/A
$$

LMZ740>746-312100-
SOUTHERN LAKE MICHIGAN

STATION/POSITION SKY/WX   TEMP    WIND        PRES    VSBY  WAVE
                          AIR SEA DIR/SP/G                  HT/PER
                          (F)     (DEG/KT/KT) (MB)    (MI)  (FT/S)
SOUTHERN BUOY              70 72  170/  8/  8 1017.3F         0
WILMETTE HARBOR            69 64  290/  4/  4   N/A           0
HARRISON CRIB              71      90/  8/  9   N/A
BURNHAM HARBOR             74      60/  2/  5   N/A
CALUMET HARBOR             73      50/  7/  8   N/A
BURNS HARBOR               76      60/  8/  8 1018.3F
MICHIGAN CITY              72      20/  7/  7   N/A
MICHIGAN CITY 6N           74 73   50/  4/  6   N/A           0
ST. JOSEPH                 74 74   20/  4/  4   N/A           0
$$

ILZ025>027-034>036-040-047-049-050-058-095>099-312100-
WEST-CENTRAL ILLINOIS

CITY           SKY/WX    TMP DP  RH WIND       PRES   REMARKS
QUINCY         MOSUNNY   89  69  51 S9        30.00F HX  93
GALESBURG*     MOSUNNY   86  72  63 S7        30.01F HX  92
MACOMB*        MOSUNNY   90  68  48 SW5       30.03S HX  93
JACKSONVILLE*  MOSUNNY   92  71  50 S7        30.02S HX  97
PITTSFIELD*    MOSUNNY   91  69  48 S9        30.02F HX  96
$$

ILZ028>032-037-038-041>044-048-051>054-059>061-312100-
CENTRAL ILLINOIS

CITY           SKY/WX    TMP DP  RH WIND       PRES   REMARKS
PONTIAC        MOSUNNY   87  72  60 SE6       30.04F HAZE    HX  94
BLOOMINGTON    MOSUNNY   89  71  55 S12       30.05F HX  95
DECATUR        MOSUNNY   86  70  58 S12       30.05F HX  90
PEORIA         MOSUNNY   91  70  49 S7        30.01F HX  96
LACON*         MOSUNNY   85  69  57 CALM      30.01F HX  88
LINCOLN*       MOSUNNY   91  69  48 S8        30.01F HX  95
SPRINGFIELD    PTSUNNY   90  71  53 S9        30.03S HX  96
TAYLORVILLE    MOSUNNY   82  72  69 SE12      30.05S HX  87
$$

ILZ033-039-045-046-055>057-062-063-312100-
EAST-CENTRAL ILLINOIS

CITY           SKY/WX    TMP DP  RH WIND       PRES   REMARKS
CHAMPAIGN      PTSUNNY   87  70  56 S6        30.06F HX  92
MATTOON        SUNNY     84  68  58 S8        30.07F HX  87
PARIS*         MOSUNNY   87  70  58 SW9       30.07F HX  92
$$

ILZ079-100>102-312100-
SOUTHWEST ILLINOIS

CITY           SKY/WX    TMP DP  RH WIND       PRES   REMARKS
BELLEVILLE     MOSUNNY   87  75  67 SE3       30.03F HX  97
CAHOKIA*       MOSUNNY   91  71  51 SE9       30.02F HX  97
SPARTA*        SUNNY     85  73  67 S9        30.06F HX  92
$$

ILZ064>066-069>071-074>076-080>082-084>086-088>090-092>094-312100-
SOUTH-CENTRAL ILLINOIS

CITY           SKY/WX    TMP DP  RH WIND       PRES   REMARKS
CARBONDALE     MOSUNNY   85  71  63 SE7       30.06F HX  90
CAIRO*         SUNNY     85  73  66 S6        30.07F HX  92
EFFINGHAM*     MOSUNNY   82  67  59 S7        30.09S HX  85
MARION         PTSUNNY   88  70  55 SE7       30.08F HX  92
MT. VERNON     MOSUNNY   90  72  55 S7        30.07F HX  96
SALEM*         MOSUNNY   88  71  57 SW9       30.06F HX  93
METROPOLIS*    SUNNY     87  72  62 S5        30.08F HX  93
$$

ILZ067-068-072-073-078-083-087-091-312100-
SOUTHEAST ILLINOIS

CITY           SKY/WX    TMP DP  RH WIND       PRES   REMARKS
LAWRENCEVILLE  PTSUNNY   88  67  49 MISG      30.07F HX  91
FLORA*         MOSUNNY   85  68  56 S5        30.07F HX  88
FAIRFIELD*     MOSUNNY   85  70  59 SE5       30.06F HX  90
HARRISBURG*    MOSUNNY   86  69  56 SE7       30.08S HX  89
ROBINSON*      MOSUNNY   87  68  53 SW7       30.08F HX  90
CARMI*         SUNNY     86  70  59 S7        30.07F HX  90
$$

ABBREVIATIONS USED IN REMARKS
   TC - TEMPERATURE IN CELSIUS
  WCI - WIND CHILL INDEX
   HX - HEAT INDEX
  VSB - VISIBILITY
$$




USA.gov is the U.S. government's official web portal to all federal, state and local government web resources and services.